owner,sensor,date,latitude,longitude,sea_surface_height_above_sea_level,qcFlag 
COMPS,ioos:station:USF.COMPS:BGC:1,2014-01-01T00:00:00Z,26.4040,-81.8810,-0.303,1111122 
COMPS,ioos:station:USF.COMPS:BGC:1,2014-01-01T00:06:00Z,26.4040,-81.8810,-0.29,1111122 
COMPS,ioos:station:USF.COMPS:BGC:1,2014-01-01T00:12:00Z,26.4040,-81.8810,-0.283,1111122 
COMPS,ioos:station:USF.COMPS:BGC:1,2014-01-01T00:18:00Z,26.4040,-81.8810,-0.264,1111122 
COMPS,ioos:station:USF.COMPS:BGC:1,2014-01-01T00:24:00Z,26.4040,-81.8810,-0.249,1111122 
COMPS,ioos:station:USF.COMPS:BGC:1,2014-01-01T00:30:00Z,26.4040,-81.8810,-0.236,1111122 
COMPS,ioos:station:USF.COMPS:BGC:1,2014-01-01T00:36:00Z,26.4040,-81.8810,-0.217,1111122 
COMPS,ioos:station:USF.COMPS:BGC:1,2014-01-01T00:42:00Z,26.4040,-81.8810,-0.205,1111122 
COMPS,ioos:station:USF.COMPS:BGC:1,2014-01-01T00:48:00Z,26.4040,-81.8810,-0.2,1111122 
COMPS,ioos:station:USF.COMPS:BGC:1,2014-01-01T00:54:00Z,26.4040,-81.8810,-0.187,1111122 
COMPS,ioos:station:USF.COMPS:BGC:1,2014-01-01T01:00:00Z,26.4040,-81.8810,-0.173,1111122 
COMPS,ioos:station:USF.COMPS:BGC:1,2014-01-01T01:06:00Z,26.4040,-81.8810,-0.158,1111122 
COMPS,ioos:station:USF.COMPS:BGC:1,2014-01-01T01:12:00Z,26.4040,-81.8810,-0.137,1111122 
COMPS,ioos:station:USF.COMPS:BGC:1,2014-01-01T01:18:00Z,26.4040,-81.8810,-0.119,1111122 
COMPS,ioos:station:USF.COMPS:BGC:1,2014-01-01T01:24:00Z,26.4040,-81.8810,-0.108,1111122 
COMPS,ioos:station:USF.COMPS:BGC:1,2014-01-01T01:30:00Z,26.4040,-81.8810,-0.098,1111122 
COMPS,ioos:station:USF.COMPS:BGC:1,2014-01-01T01:36:00Z,26.4040,-81.8810,-0.09,1111122 
COMPS,ioos:station:USF.COMPS:BGC:1,2014-01-01T01:42:00Z,26.4040,-81.8810,-0.073,1111122 
COMPS,ioos:station:USF.COMPS:BGC:1,2014-01-01T01:48:00Z,26.4040,-81.8810,-0.06,1111122 
COMPS,ioos:station:USF.COMPS:BGC:1,2014-01-01T01:54:00Z,26.4040,-81.8810,-0.032,1111122 
COMPS,ioos:station:USF.COMPS:BGC:1,2014-01-01T02:00:00Z,26.4040,-81.8810,-0.024,1111122 
COMPS,ioos:station:USF.COMPS:BGC:1,2014-01-01T02:06:00Z,26.4040,-81.8810,-0.011,1111122 
COMPS,ioos:station:USF.COMPS:BGC:1,2014-01-01T02:12:00Z,26.4040,-81.8810,-0.012,1111122 
COMPS,ioos:station:USF.COMPS:BGC:1,2014-01-01T02:18:00Z,26.4040,-81.8810,-0.006,1111122 
COMPS,ioos:station:USF.COMPS:BGC:1,2014-01-01T02:24:00Z,26.4040,-81.8810,0.005,1111122 
COMPS,ioos:station:USF.COMPS:BGC:1,2014-01-01T02:30:00Z,26.4040,-81.8810,0.023,1111122 
COMPS,ioos:station:USF.COMPS:BGC:1,2014-01-01T02:36:00Z,26.4040,-81.8810,0.023,1111122 
COMPS,ioos:station:USF.COMPS:BGC:1,2014-01-01T02:42:00Z,26.4040,-81.8810,0.038,1111122 
COMPS,ioos:station:USF.COMPS:BGC:1,2014-01-01T02:48:00Z,26.4040,-81.8810,0.057,1111122 
COMPS,ioos:station:USF.COMPS:BGC:1,2014-01-01T02:54:00Z,26.4040,-81.8810,0.068,1111122 
COMPS,ioos:station:USF.COMPS:BGC:1,2014-01-01T03:00:00Z,26.4040,-81.8810,0.074,1111122 
COMPS,ioos:station:USF.COMPS:BGC:1,2014-01-01T03:06:00Z,26.4040,-81.8810,0.087,1111122 
COMPS,ioos:station:USF.COMPS:BGC:1,2014-01-01T03:12:00Z,26.4040,-81.8810,0.088,1111122 
COMPS,ioos:station:USF.COMPS:BGC:1,2014-01-01T03:18:00Z,26.4040,-81.8810,0.103,1111122 
COMPS,ioos:station:USF.COMPS:BGC:1,2014-01-01T03:24:00Z,26.4040,-81.8810,0.12,1111122 
COMPS,ioos:station:USF.COMPS:BGC:1,2014-01-01T03:30:00Z,26.4040,-81.8810,0.121,1111122 
COMPS,ioos:station:USF.COMPS:BGC:1,2014-01-01T03:36:00Z,26.4040,-81.8810,0.13,1111122 
COMPS,ioos:station:USF.COMPS:BGC:1,2014-01-01T03:42:00Z,26.4040,-81.8810,0.137,1111122 
COMPS,ioos:station:USF.COMPS:BGC:1,2014-01-01T03:48:00Z,26.4040,-81.8810,0.141,1111122 
COMPS,ioos:station:USF.COMPS:BGC:1,2014-01-01T03:54:00Z,26.4040,-81.8810,0.144,1111122 
COMPS,ioos:station:USF.COMPS:BGC:1,2014-01-01T04:00:00Z,26.4040,-81.8810,0.164,1111122 
COMPS,ioos:station:USF.COMPS:BGC:1,2014-01-01T04:06:00Z,26.4040,-81.8810,0.173,1111122 
COMPS,ioos:station:USF.COMPS:BGC:1,2014-01-01T04:12:00Z,26.4040,-81.8810,0.186,1111122 
COMPS,ioos:station:USF.COMPS:BGC:1,2014-01-01T04:18:00Z,26.4040,-81.8810,0.178,1111122 
COMPS,ioos:station:USF.COMPS:BGC:1,2014-01-01T04:24:00Z,26.4040,-81.8810,0.173,1111122 
COMPS,ioos:station:USF.COMPS:BGC:1,2014-01-01T04:30:00Z,26.4040,-81.8810,0.188,1111122 
COMPS,ioos:station:USF.COMPS:BGC:1,2014-01-01T04:36:00Z,26.4040,-81.8810,0.189,1111122 
COMPS,ioos:station:USF.COMPS:BGC:1,2014-01-01T04:42:00Z,26.4040,-81.8810,0.19,1111122 
COMPS,ioos:station:USF.COMPS:BGC:1,2014-01-01T04:48:00Z,26.4040,-81.8810,0.2,1111122 
COMPS,ioos:station:USF.COMPS:BGC:1,2014-01-01T04:54:00Z,26.4040,-81.8810,0.207,1111122 
COMPS,ioos:station:USF.COMPS:BGC:1,2014-01-01T05:00:00Z,26.4040,-81.8810,0.197,1111122 
COMPS,ioos:station:USF.COMPS:BGC:1,2014-01-01T05:06:00Z,26.4040,-81.8810,0.19,1111122 
COMPS,ioos:station:USF.COMPS:BGC:1,2014-01-01T05:12:00Z,26.4040,-81.8810,0.204,1111122 
COMPS,ioos:station:USF.COMPS:BGC:1,2014-01-01T05:18:00Z,26.4040,-81.8810,0.197,1111122 
COMPS,ioos:station:USF.COMPS:BGC:1,2014-01-01T05:24:00Z,26.4040,-81.8810,0.172,1111122 
COMPS,ioos:station:USF.COMPS:BGC:1,2014-01-01T05:30:00Z,26.4040,-81.8810,0.173,1111122 
COMPS,ioos:station:USF.COMPS:BGC:1,2014-01-01T05:36:00Z,26.4040,-81.8810,0.163,1111122 
COMPS,ioos:station:USF.COMPS:BGC:1,2014-01-01T05:42:00Z,26.4040,-81.8810,0.142,1111122 
COMPS,ioos:station:USF.COMPS:BGC:1,2014-01-01T05:48:00Z,26.4040,-81.8810,0.127,1111122 
COMPS,ioos:station:USF.COMPS:BGC:1,2014-01-01T05:54:00Z,26.4040,-81.8810,0.113,1111122 
COMPS,ioos:station:USF.COMPS:BGC:1,2014-01-01T06:00:00Z,26.4040,-81.8810,0.1,1111122 
COMPS,ioos:station:USF.COMPS:BGC:1,2014-01-01T06:06:00Z,26.4040,-81.8810,0.083,1111122 
COMPS,ioos:station:USF.COMPS:BGC:1,2014-01-01T06:12:00Z,26.4040,-81.8810,0.064,1111122 
COMPS,ioos:station:USF.COMPS:BGC:1,2014-01-01T06:18:00Z,26.4040,-81.8810,0.046,1111122 
COMPS,ioos:station:USF.COMPS:BGC:1,2014-01-01T06:24:00Z,26.4040,-81.8810,0.024,1111122 
COMPS,ioos:station:USF.COMPS:BGC:1,2014-01-01T06:30:00Z,26.4040,-81.8810,-0.004,1111122 
COMPS,ioos:station:USF.COMPS:BGC:1,2014-01-01T06:36:00Z,26.4040,-81.8810,-0.014,1111122 
COMPS,ioos:station:USF.COMPS:BGC:1,2014-01-01T06:42:00Z,26.4040,-81.8810,-0.025,1111122 
COMPS,ioos:station:USF.COMPS:BGC:1,2014-01-01T06:48:00Z,26.4040,-81.8810,-0.043,1111122 
COMPS,ioos:station:USF.COMPS:BGC:1,2014-01-01T06:54:00Z,26.4040,-81.8810,-0.058,1111122 
COMPS,ioos:station:USF.COMPS:BGC:1,2014-01-01T07:00:00Z,26.4040,-81.8810,-0.065,1111122 
COMPS,ioos:station:USF.COMPS:BGC:1,2014-01-01T07:06:00Z,26.4040,-81.8810,-0.09,1111122 
COMPS,ioos:station:USF.COMPS:BGC:1,2014-01-01T07:12:00Z,26.4040,-81.8810,-0.102,1111122 
COMPS,ioos:station:USF.COMPS:BGC:1,2014-01-01T07:18:00Z,26.4040,-81.8810,-0.128,1111122 
COMPS,ioos:station:USF.COMPS:BGC:1,2014-01-01T07:24:00Z,26.4040,-81.8810,-0.144,1111122 
COMPS,ioos:station:USF.COMPS:BGC:1,2014-01-01T07:30:00Z,26.4040,-81.8810,-0.154,1111122 
COMPS,ioos:station:USF.COMPS:BGC:1,2014-01-01T07:36:00Z,26.4040,-81.8810,-0.179,1111122 
COMPS,ioos:station:USF.COMPS:BGC:1,2014-01-01T07:42:00Z,26.4040,-81.8810,-0.202,1111122 
COMPS,ioos:station:USF.COMPS:BGC:1,2014-01-01T07:48:00Z,26.4040,-81.8810,-0.216,1111122 
COMPS,ioos:station:USF.COMPS:BGC:1,2014-01-01T07:54:00Z,26.4040,-81.8810,-0.237,1111122 
COMPS,ioos:station:USF.COMPS:BGC:1,2014-01-01T08:00:00Z,26.4040,-81.8810,-0.252,1111122 
COMPS,ioos:station:USF.COMPS:BGC:1,2014-01-01T08:06:00Z,26.4040,-81.8810,-0.265,1111122 
COMPS,ioos:station:USF.COMPS:BGC:1,2014-01-01T08:12:00Z,26.4040,-81.8810,-0.285,1111122 
COMPS,ioos:station:USF.COMPS:BGC:1,2014-01-01T08:18:00Z,26.4040,-81.8810,-0.297,1111122 
COMPS,ioos:station:USF.COMPS:BGC:1,2014-01-01T08:24:00Z,26.4040,-81.8810,-0.312,1111122 
COMPS,ioos:station:USF.COMPS:BGC:1,2014-01-01T08:30:00Z,26.4040,-81.8810,-0.334,1111122 
COMPS,ioos:station:USF.COMPS:BGC:1,2014-01-01T08:36:00Z,26.4040,-81.8810,-0.355,1111122 
COMPS,ioos:station:USF.COMPS:BGC:1,2014-01-01T08:42:00Z,26.4040,-81.8810,-0.367,1111122 
COMPS,ioos:station:USF.COMPS:BGC:1,2014-01-01T08:48:00Z,26.4040,-81.8810,-0.384,1111122 
COMPS,ioos:station:USF.COMPS:BGC:1,2014-01-01T08:54:00Z,26.4040,-81.8810,-0.404,1111122 
COMPS,ioos:station:USF.COMPS:BGC:1,2014-01-01T09:00:00Z,26.4040,-81.8810,-0.42,1111122 
COMPS,ioos:station:USF.COMPS:BGC:1,2014-01-01T09:06:00Z,26.4040,-81.8810,-0.435,1111122 
COMPS,ioos:station:USF.COMPS:BGC:1,2014-01-01T09:12:00Z,26.4040,-81.8810,-0.451,1111122 
COMPS,ioos:station:USF.COMPS:BGC:1,2014-01-01T09:18:00Z,26.4040,-81.8810,-0.47,1111122 
COMPS,ioos:station:USF.COMPS:BGC:1,2014-01-01T09:24:00Z,26.4040,-81.8810,-0.483,1111122 
COMPS,ioos:station:USF.COMPS:BGC:1,2014-01-01T09:30:00Z,26.4040,-81.8810,-0.499,1111122 
COMPS,ioos:station:USF.COMPS:BGC:1,2014-01-01T09:36:00Z,26.4040,-81.8810,-0.516,1111122 
COMPS,ioos:station:USF.COMPS:BGC:1,2014-01-01T09:42:00Z,26.4040,-81.8810,-0.531,1111122 
COMPS,ioos:station:USF.COMPS:BGC:1,2014-01-01T09:48:00Z,26.4040,-81.8810,-0.549,1111122 
COMPS,ioos:station:USF.COMPS:BGC:1,2014-01-01T09:54:00Z,26.4040,-81.8810,-0.563,1111122 
COMPS,ioos:station:USF.COMPS:BGC:1,2014-01-01T10:00:00Z,26.4040,-81.8810,-0.574,1111122 
COMPS,ioos:station:USF.COMPS:BGC:1,2014-01-01T10:06:00Z,26.4040,-81.8810,-0.589,1111122 
COMPS,ioos:station:USF.COMPS:BGC:1,2014-01-01T10:12:00Z,26.4040,-81.8810,-0.603,1111122 
COMPS,ioos:station:USF.COMPS:BGC:1,2014-01-01T10:18:00Z,26.4040,-81.8810,-0.617,1111122 
COMPS,ioos:station:USF.COMPS:BGC:1,2014-01-01T10:24:00Z,26.4040,-81.8810,-0.63,1111122 
COMPS,ioos:station:USF.COMPS:BGC:1,2014-01-01T10:30:00Z,26.4040,-81.8810,-0.645,1111122 
COMPS,ioos:station:USF.COMPS:BGC:1,2014-01-01T10:36:00Z,26.4040,-81.8810,-0.657,1111122 
COMPS,ioos:station:USF.COMPS:BGC:1,2014-01-01T10:42:00Z,26.4040,-81.8810,-0.667,1111122 
COMPS,ioos:station:USF.COMPS:BGC:1,2014-01-01T10:48:00Z,26.4040,-81.8810,-0.677,1111122 
COMPS,ioos:station:USF.COMPS:BGC:1,2014-01-01T10:54:00Z,26.4040,-81.8810,-0.691,1111122 
COMPS,ioos:station:USF.COMPS:BGC:1,2014-01-01T11:00:00Z,26.4040,-81.8810,-0.701,1111122 
COMPS,ioos:station:USF.COMPS:BGC:1,2014-01-01T11:06:00Z,26.4040,-81.8810,-0.712,1111122 
COMPS,ioos:station:USF.COMPS:BGC:1,2014-01-01T11:12:00Z,26.4040,-81.8810,-0.722,1111122 
COMPS,ioos:station:USF.COMPS:BGC:1,2014-01-01T11:18:00Z,26.4040,-81.8810,-0.733,1111122 
COMPS,ioos:station:USF.COMPS:BGC:1,2014-01-01T11:24:00Z,26.4040,-81.8810,-0.742,1111122 
COMPS,ioos:station:USF.COMPS:BGC:1,2014-01-01T11:30:00Z,26.4040,-81.8810,-0.751,1111122 
COMPS,ioos:station:USF.COMPS:BGC:1,2014-01-01T11:36:00Z,26.4040,-81.8810,-0.759,1111122 
COMPS,ioos:station:USF.COMPS:BGC:1,2014-01-01T11:42:00Z,26.4040,-81.8810,-0.766,1111122 
COMPS,ioos:station:USF.COMPS:BGC:1,2014-01-01T11:48:00Z,26.4040,-81.8810,-0.772,1111122 
COMPS,ioos:station:USF.COMPS:BGC:1,2014-01-01T11:54:00Z,26.4040,-81.8810,-0.776,1111122 
COMPS,ioos:station:USF.COMPS:BGC:1,2014-01-01T12:00:00Z,26.4040,-81.8810,-0.779,1111122 
COMPS,ioos:station:USF.COMPS:BGC:1,2014-01-01T12:06:00Z,26.4040,-81.8810,-0.779,1111122 
COMPS,ioos:station:USF.COMPS:BGC:1,2014-01-01T12:12:00Z,26.4040,-81.8810,-0.78,1111122 
COMPS,ioos:station:USF.COMPS:BGC:1,2014-01-01T12:18:00Z,26.4040,-81.8810,-0.775,1111122 
COMPS,ioos:station:USF.COMPS:BGC:1,2014-01-01T12:24:00Z,26.4040,-81.8810,-0.771,1111122 
COMPS,ioos:station:USF.COMPS:BGC:1,2014-01-01T12:30:00Z,26.4040,-81.8810,-0.766,1111122 
COMPS,ioos:station:USF.COMPS:BGC:1,2014-01-01T12:36:00Z,26.4040,-81.8810,-0.757,1111122 
COMPS,ioos:station:USF.COMPS:BGC:1,2014-01-01T12:42:00Z,26.4040,-81.8810,-0.747,1111122 
COMPS,ioos:station:USF.COMPS:BGC:1,2014-01-01T12:48:00Z,26.4040,-81.8810,-0.729,1111122 
COMPS,ioos:station:USF.COMPS:BGC:1,2014-01-01T12:54:00Z,26.4040,-81.8810,-0.714,1111122 
COMPS,ioos:station:USF.COMPS:BGC:1,2014-01-01T13:00:00Z,26.4040,-81.8810,-0.698,1111122 
COMPS,ioos:station:USF.COMPS:BGC:1,2014-01-01T13:06:00Z,26.4040,-81.8810,-0.683,1111122 
COMPS,ioos:station:USF.COMPS:BGC:1,2014-01-01T13:12:00Z,26.4040,-81.8810,-0.667,1111122 
COMPS,ioos:station:USF.COMPS:BGC:1,2014-01-01T13:18:00Z,26.4040,-81.8810,-0.658,1111122 
COMPS,ioos:station:USF.COMPS:BGC:1,2014-01-01T13:24:00Z,26.4040,-81.8810,-0.643,1111122 
COMPS,ioos:station:USF.COMPS:BGC:1,2014-01-01T13:30:00Z,26.4040,-81.8810,-0.627,1111122 
COMPS,ioos:station:USF.COMPS:BGC:1,2014-01-01T13:36:00Z,26.4040,-81.8810,-0.615,1111122 
COMPS,ioos:station:USF.COMPS:BGC:1,2014-01-01T13:42:00Z,26.4040,-81.8810,-0.602,1111122 
COMPS,ioos:station:USF.COMPS:BGC:1,2014-01-01T13:48:00Z,26.4040,-81.8810,-0.581,1111122 
COMPS,ioos:station:USF.COMPS:BGC:1,2014-01-01T13:54:00Z,26.4040,-81.8810,-0.567,1111122 
COMPS,ioos:station:USF.COMPS:BGC:1,2014-01-01T14:00:00Z,26.4040,-81.8810,-0.551,1111122 
COMPS,ioos:station:USF.COMPS:BGC:1,2014-01-01T14:06:00Z,26.4040,-81.8810,-0.54,1111122 
COMPS,ioos:station:USF.COMPS:BGC:1,2014-01-01T14:12:00Z,26.4040,-81.8810,-0.524,1111122 
COMPS,ioos:station:USF.COMPS:BGC:1,2014-01-01T14:18:00Z,26.4040,-81.8810,-0.513,1111122 
COMPS,ioos:station:USF.COMPS:BGC:1,2014-01-01T14:24:00Z,26.4040,-81.8810,-0.5,1111122 
COMPS,ioos:station:USF.COMPS:BGC:1,2014-01-01T14:30:00Z,26.4040,-81.8810,-0.478,1111122 
COMPS,ioos:station:USF.COMPS:BGC:1,2014-01-01T14:36:00Z,26.4040,-81.8810,-0.459,1111122 
COMPS,ioos:station:USF.COMPS:BGC:1,2014-01-01T14:42:00Z,26.4040,-81.8810,-0.447,1111122 
COMPS,ioos:station:USF.COMPS:BGC:1,2014-01-01T14:48:00Z,26.4040,-81.8810,-0.427,1111122 
COMPS,ioos:station:USF.COMPS:BGC:1,2014-01-01T14:54:00Z,26.4040,-81.8810,-0.416,1111122 
COMPS,ioos:station:USF.COMPS:BGC:1,2014-01-01T15:00:00Z,26.4040,-81.8810,-0.401,1111122 
COMPS,ioos:station:USF.COMPS:BGC:1,2014-01-01T15:06:00Z,26.4040,-81.8810,-0.381,1111122 
COMPS,ioos:station:USF.COMPS:BGC:1,2014-01-01T15:12:00Z,26.4040,-81.8810,-0.368,1111122 
COMPS,ioos:station:USF.COMPS:BGC:1,2014-01-01T15:18:00Z,26.4040,-81.8810,-0.358,1111122 
COMPS,ioos:station:USF.COMPS:BGC:1,2014-01-01T15:24:00Z,26.4040,-81.8810,-0.338,1111122 
COMPS,ioos:station:USF.COMPS:BGC:1,2014-01-01T15:30:00Z,26.4040,-81.8810,-0.325,1111122 
COMPS,ioos:station:USF.COMPS:BGC:1,2014-01-01T15:36:00Z,26.4040,-81.8810,-0.312,1111122 
COMPS,ioos:station:USF.COMPS:BGC:1,2014-01-01T15:42:00Z,26.4040,-81.8810,-0.29,1111122 
COMPS,ioos:station:USF.COMPS:BGC:1,2014-01-01T15:48:00Z,26.4040,-81.8810,-0.272,1111122 
COMPS,ioos:station:USF.COMPS:BGC:1,2014-01-01T15:54:00Z,26.4040,-81.8810,-0.256,1111122 
COMPS,ioos:station:USF.COMPS:BGC:1,2014-01-01T16:00:00Z,26.4040,-81.8810,-0.234,1111122 
COMPS,ioos:station:USF.COMPS:BGC:1,2014-01-01T16:06:00Z,26.4040,-81.8810,-0.224,1111122 
COMPS,ioos:station:USF.COMPS:BGC:1,2014-01-01T16:12:00Z,26.4040,-81.8810,-0.209,1111122 
COMPS,ioos:station:USF.COMPS:BGC:1,2014-01-01T16:18:00Z,26.4040,-81.8810,-0.189,1111122 
COMPS,ioos:station:USF.COMPS:BGC:1,2014-01-01T16:24:00Z,26.4040,-81.8810,-0.175,1111122 
COMPS,ioos:station:USF.COMPS:BGC:1,2014-01-01T16:30:00Z,26.4040,-81.8810,-0.161,1111122 
COMPS,ioos:station:USF.COMPS:BGC:1,2014-01-01T16:36:00Z,26.4040,-81.8810,-0.14,1111122 
COMPS,ioos:station:USF.COMPS:BGC:1,2014-01-01T16:42:00Z,26.4040,-81.8810,-0.128,1111122 
COMPS,ioos:station:USF.COMPS:BGC:1,2014-01-01T16:48:00Z,26.4040,-81.8810,-0.114,1111122 
COMPS,ioos:station:USF.COMPS:BGC:1,2014-01-01T16:54:00Z,26.4040,-81.8810,-0.093,1111122 
COMPS,ioos:station:USF.COMPS:BGC:1,2014-01-01T17:00:00Z,26.4040,-81.8810,-0.077,1111122 
COMPS,ioos:station:USF.COMPS:BGC:1,2014-01-01T17:06:00Z,26.4040,-81.8810,-0.053,1111122 
COMPS,ioos:station:USF.COMPS:BGC:1,2014-01-01T17:12:00Z,26.4040,-81.8810,-0.047,1111122 
COMPS,ioos:station:USF.COMPS:BGC:1,2014-01-01T17:18:00Z,26.4040,-81.8810,-0.025,1111122 
COMPS,ioos:station:USF.COMPS:BGC:1,2014-01-01T17:24:00Z,26.4040,-81.8810,-0.007,1111122 
COMPS,ioos:station:USF.COMPS:BGC:1,2014-01-01T17:30:00Z,26.4040,-81.8810,0.003,1111122 
COMPS,ioos:station:USF.COMPS:BGC:1,2014-01-01T17:36:00Z,26.4040,-81.8810,0.014,1111122 
COMPS,ioos:station:USF.COMPS:BGC:1,2014-01-01T17:42:00Z,26.4040,-81.8810,0.032,1111122 
COMPS,ioos:station:USF.COMPS:BGC:1,2014-01-01T17:48:00Z,26.4040,-81.8810,0.042,1111122 
COMPS,ioos:station:USF.COMPS:BGC:1,2014-01-01T17:54:00Z,26.4040,-81.8810,0.051,1111122 
COMPS,ioos:station:USF.COMPS:BGC:1,2014-01-01T18:00:00Z,26.4040,-81.8810,0.069,1111122 
COMPS,ioos:station:USF.COMPS:BGC:1,2014-01-01T18:06:00Z,26.4040,-81.8810,0.077,1111122 
COMPS,ioos:station:USF.COMPS:BGC:1,2014-01-01T18:12:00Z,26.4040,-81.8810,0.087,1111122 
COMPS,ioos:station:USF.COMPS:BGC:1,2014-01-01T18:18:00Z,26.4040,-81.8810,0.099,1111122 
COMPS,ioos:station:USF.COMPS:BGC:1,2014-01-01T18:24:00Z,26.4040,-81.8810,0.105,1111122 
COMPS,ioos:station:USF.COMPS:BGC:1,2014-01-01T18:30:00Z,26.4040,-81.8810,0.109,1111122 
COMPS,ioos:station:USF.COMPS:BGC:1,2014-01-01T18:36:00Z,26.4040,-81.8810,0.115,1111122 
COMPS,ioos:station:USF.COMPS:BGC:1,2014-01-01T18:42:00Z,26.4040,-81.8810,0.111,1111122 
COMPS,ioos:station:USF.COMPS:BGC:1,2014-01-01T18:48:00Z,26.4040,-81.8810,0.123,1111122 
COMPS,ioos:station:USF.COMPS:BGC:1,2014-01-01T18:54:00Z,26.4040,-81.8810,0.126,1111122 
COMPS,ioos:station:USF.COMPS:BGC:1,2014-01-01T19:00:00Z,26.4040,-81.8810,0.123,1111122 
COMPS,ioos:station:USF.COMPS:BGC:1,2014-01-01T19:06:00Z,26.4040,-81.8810,0.115,1111122 
COMPS,ioos:station:USF.COMPS:BGC:1,2014-01-01T19:12:00Z,26.4040,-81.8810,0.114,1111122 
COMPS,ioos:station:USF.COMPS:BGC:1,2014-01-01T19:18:00Z,26.4040,-81.8810,0.111,1111122 
COMPS,ioos:station:USF.COMPS:BGC:1,2014-01-01T19:24:00Z,26.4040,-81.8810,0.098,1111122 
COMPS,ioos:station:USF.COMPS:BGC:1,2014-01-01T19:30:00Z,26.4040,-81.8810,0.086,1111122 
COMPS,ioos:station:USF.COMPS:BGC:1,2014-01-01T19:36:00Z,26.4040,-81.8810,0.076,1111122 
COMPS,ioos:station:USF.COMPS:BGC:1,2014-01-01T19:42:00Z,26.4040,-81.8810,0.067,1111122 
COMPS,ioos:station:USF.COMPS:BGC:1,2014-01-01T19:48:00Z,26.4040,-81.8810,0.048,1111122 
COMPS,ioos:station:USF.COMPS:BGC:1,2014-01-01T19:54:00Z,26.4040,-81.8810,0.029,1111122 
COMPS,ioos:station:USF.COMPS:BGC:1,2014-01-01T20:00:00Z,26.4040,-81.8810,0.014,1111122 
COMPS,ioos:station:USF.COMPS:BGC:1,2014-01-01T20:06:00Z,26.4040,-81.8810,0.013,1111122 
COMPS,ioos:station:USF.COMPS:BGC:1,2014-01-01T20:12:00Z,26.4040,-81.8810,0.001,1111122 
COMPS,ioos:station:USF.COMPS:BGC:1,2014-01-01T20:18:00Z,26.4040,-81.8810,-0.007,1111122 
COMPS,ioos:station:USF.COMPS:BGC:1,2014-01-01T20:24:00Z,26.4040,-81.8810,-0.025,1111122 
COMPS,ioos:station:USF.COMPS:BGC:1,2014-01-01T20:30:00Z,26.4040,-81.8810,-0.033,1111122 
COMPS,ioos:station:USF.COMPS:BGC:1,2014-01-01T20:36:00Z,26.4040,-81.8810,-0.044,1111122 
COMPS,ioos:station:USF.COMPS:BGC:1,2014-01-01T20:42:00Z,26.4040,-81.8810,-0.057,1111122 
COMPS,ioos:station:USF.COMPS:BGC:1,2014-01-01T20:48:00Z,26.4040,-81.8810,-0.067,1111122 
COMPS,ioos:station:USF.COMPS:BGC:1,2014-01-01T20:54:00Z,26.4040,-81.8810,-0.072,1111122 
COMPS,ioos:station:USF.COMPS:BGC:1,2014-01-01T21:00:00Z,26.4040,-81.8810,-0.083,1111122 
COMPS,ioos:station:USF.COMPS:BGC:1,2014-01-01T21:06:00Z,26.4040,-81.8810,-0.089,1111122 
COMPS,ioos:station:USF.COMPS:BGC:1,2014-01-01T21:12:00Z,26.4040,-81.8810,-0.095,1111122 
COMPS,ioos:station:USF.COMPS:BGC:1,2014-01-01T21:18:00Z,26.4040,-81.8810,-0.104,1111122 
COMPS,ioos:station:USF.COMPS:BGC:1,2014-01-01T21:24:00Z,26.4040,-81.8810,-0.111,1111122 
COMPS,ioos:station:USF.COMPS:BGC:1,2014-01-01T21:30:00Z,26.4040,-81.8810,-0.118,1111122 
COMPS,ioos:station:USF.COMPS:BGC:1,2014-01-01T21:36:00Z,26.4040,-81.8810,-0.129,1111122 
COMPS,ioos:station:USF.COMPS:BGC:1,2014-01-01T21:42:00Z,26.4040,-81.8810,-0.134,1111122 
COMPS,ioos:station:USF.COMPS:BGC:1,2014-01-01T21:48:00Z,26.4040,-81.8810,-0.128,1111122 
COMPS,ioos:station:USF.COMPS:BGC:1,2014-01-01T21:54:00Z,26.4040,-81.8810,-0.131,1111122 
COMPS,ioos:station:USF.COMPS:BGC:1,2014-01-01T22:00:00Z,26.4040,-81.8810,-0.135,1111122 
COMPS,ioos:station:USF.COMPS:BGC:1,2014-01-01T22:06:00Z,26.4040,-81.8810,-0.148,1111122 
COMPS,ioos:station:USF.COMPS:BGC:1,2014-01-01T22:12:00Z,26.4040,-81.8810,-0.143,1111122 
COMPS,ioos:station:USF.COMPS:BGC:1,2014-01-01T22:18:00Z,26.4040,-81.8810,-0.151,1111122 
COMPS,ioos:station:USF.COMPS:BGC:1,2014-01-01T22:24:00Z,26.4040,-81.8810,-0.161,1111122 
COMPS,ioos:station:USF.COMPS:BGC:1,2014-01-01T22:30:00Z,26.4040,-81.8810,-0.162,1111122 
COMPS,ioos:station:USF.COMPS:BGC:1,2014-01-01T22:36:00Z,26.4040,-81.8810,-0.162,1111122 
COMPS,ioos:station:USF.COMPS:BGC:1,2014-01-01T22:42:00Z,26.4040,-81.8810,-0.168,1111122 
COMPS,ioos:station:USF.COMPS:BGC:1,2014-01-01T22:48:00Z,26.4040,-81.8810,-0.173,1111122 
COMPS,ioos:station:USF.COMPS:BGC:1,2014-01-01T22:54:00Z,26.4040,-81.8810,-0.177,1111122 
COMPS,ioos:station:USF.COMPS:BGC:1,2014-01-01T23:00:00Z,26.4040,-81.8810,-0.185,1111122 
COMPS,ioos:station:USF.COMPS:BGC:1,2014-01-01T23:06:00Z,26.4040,-81.8810,-0.189,1111122 
COMPS,ioos:station:USF.COMPS:BGC:1,2014-01-01T23:12:00Z,26.4040,-81.8810,-0.183,1111122 
COMPS,ioos:station:USF.COMPS:BGC:1,2014-01-01T23:18:00Z,26.4040,-81.8810,-0.185,1111122 
COMPS,ioos:station:USF.COMPS:BGC:1,2014-01-01T23:24:00Z,26.4040,-81.8810,-0.19,1111122 
COMPS,ioos:station:USF.COMPS:BGC:1,2014-01-01T23:30:00Z,26.4040,-81.8810,-0.179,1111122 
COMPS,ioos:station:USF.COMPS:BGC:1,2014-01-01T23:36:00Z,26.4040,-81.8810,-0.176,1111122 
COMPS,ioos:station:USF.COMPS:BGC:1,2014-01-01T23:42:00Z,26.4040,-81.8810,-0.178,1111122 
COMPS,ioos:station:USF.COMPS:BGC:1,2014-01-01T23:48:00Z,26.4040,-81.8810,-0.183,1111122 
COMPS,ioos:station:USF.COMPS:BGC:1,2014-01-01T23:54:00Z,26.4040,-81.8810,-0.175,1111122 
COMPS,ioos:station:USF.COMPS:BGC:1,2014-01-02T00:00:00Z,26.4040,-81.8810,-0.173,1111122 
COMPS,ioos:station:USF.COMPS:BGC:1,2014-01-02T00:06:00Z,26.4040,-81.8810,-0.16,1111122 
COMPS,ioos:station:USF.COMPS:BGC:1,2014-01-02T00:12:00Z,26.4040,-81.8810,-0.147,1111122 
COMPS,ioos:station:USF.COMPS:BGC:1,2014-01-02T00:18:00Z,26.4040,-81.8810,-0.147,1111122 
COMPS,ioos:station:USF.COMPS:BGC:1,2014-01-02T00:24:00Z,26.4040,-81.8810,-0.14,1111122 
COMPS,ioos:station:USF.COMPS:BGC:1,2014-01-02T00:30:00Z,26.4040,-81.8810,-0.133,1111122 
COMPS,ioos:station:USF.COMPS:BGC:1,2014-01-02T00:36:00Z,26.4040,-81.8810,-0.125,1111122 
COMPS,ioos:station:USF.COMPS:BGC:1,2014-01-02T00:42:00Z,26.4040,-81.8810,-0.123,1111122 
COMPS,ioos:station:USF.COMPS:BGC:1,2014-01-02T00:48:00Z,26.4040,-81.8810,-0.105,1111122 
COMPS,ioos:station:USF.COMPS:BGC:1,2014-01-02T00:54:00Z,26.4040,-81.8810,-0.096,1111122 
COMPS,ioos:station:USF.COMPS:BGC:1,2014-01-02T01:00:00Z,26.4040,-81.8810,-0.087,1111122 
COMPS,ioos:station:USF.COMPS:BGC:1,2014-01-02T01:06:00Z,26.4040,-81.8810,-0.068,1111122 
COMPS,ioos:station:USF.COMPS:BGC:1,2014-01-02T01:12:00Z,26.4040,-81.8810,-0.058,1111122 
COMPS,ioos:station:USF.COMPS:BGC:1,2014-01-02T01:18:00Z,26.4040,-81.8810,-0.053,1111122 
COMPS,ioos:station:USF.COMPS:BGC:1,2014-01-02T01:24:00Z,26.4040,-81.8810,-0.038,1111122 
COMPS,ioos:station:USF.COMPS:BGC:1,2014-01-02T01:30:00Z,26.4040,-81.8810,-0.018,1111122 
COMPS,ioos:station:USF.COMPS:BGC:1,2014-01-02T01:36:00Z,26.4040,-81.8810,0.001,1111122 
COMPS,ioos:station:USF.COMPS:BGC:1,2014-01-02T01:42:00Z,26.4040,-81.8810,0.006,1111122 
COMPS,ioos:station:USF.COMPS:BGC:1,2014-01-02T01:48:00Z,26.4040,-81.8810,0.019,1111122 
COMPS,ioos:station:USF.COMPS:BGC:1,2014-01-02T01:54:00Z,26.4040,-81.8810,0.043,1111122 
COMPS,ioos:station:USF.COMPS:BGC:1,2014-01-02T02:00:00Z,26.4040,-81.8810,0.058,1111122 
COMPS,ioos:station:USF.COMPS:BGC:1,2014-01-02T02:06:00Z,26.4040,-81.8810,0.065,1111122 
COMPS,ioos:station:USF.COMPS:BGC:1,2014-01-02T02:12:00Z,26.4040,-81.8810,0.088,1111122 
COMPS,ioos:station:USF.COMPS:BGC:1,2014-01-02T02:18:00Z,26.4040,-81.8810,0.101,1111122 
COMPS,ioos:station:USF.COMPS:BGC:1,2014-01-02T02:24:00Z,26.4040,-81.8810,0.112,1111122 
COMPS,ioos:station:USF.COMPS:BGC:1,2014-01-02T02:30:00Z,26.4040,-81.8810,0.131,1111122 
COMPS,ioos:station:USF.COMPS:BGC:1,2014-01-02T02:36:00Z,26.4040,-81.8810,0.144,1111122 
COMPS,ioos:station:USF.COMPS:BGC:1,2014-01-02T02:42:00Z,26.4040,-81.8810,0.158,1111122 
COMPS,ioos:station:USF.COMPS:BGC:1,2014-01-02T02:48:00Z,26.4040,-81.8810,0.173,1111122 